CW3467 Sant Marti de Canals ES current weather conditions

sailwx.info

Wind from 006

Air temperature 6.1° C
Dewpoint -1.3° C

Last reported at 2015-Apr-02 03:46 UTC.
Time now 2015-Apr-02 04:28 UTC

Location: N 42°14' E 000°59'.
View on Google Maps.

See reports from other nearby stations

  
Tides and Currents Weather Stations Pressure Air Temp Water Temp Dewpoint Dewpoint Depression Visibility Wind Speed Wind Dir Waves Ship Positions
date/time (UTC)wind fromknots sea level pressurealtimeterstation pressurevisibilityair tempwater tempwave heightnotes
2015-Apr-02 03:46 006 6.1
2015-Apr-02 03:31 045 6.1
2015-Apr-02 03:16 218 6.1
2015-Apr-02 03:01 231 7.2
2015-Apr-02 02:45 026 0 gusting 2 7.8
2015-Apr-02 02:30 050 0 gusting 2 7.8
2015-Apr-02 02:15 053 7.2
2015-Apr-02 02:00 152 0 gusting 1 7.2
2015-Apr-02 01:45 138 0 gusting 2 7.2
2015-Apr-02 01:30 346 7.8
2015-Apr-02 01:15 313 8.3
2015-Apr-02 01:00 127 8.3
2015-Apr-02 00:45 134 8.9
2015-Apr-02 00:30 331 1 gusting 6 8.9
2015-Apr-02 00:15 358 9.4
2015-Apr-02 00:00 350 9.4
2015-Apr-01 23:45 354 0 gusting 2 9.4
2015-Apr-01 23:30 050 0 gusting 2 10.0
2015-Apr-01 23:15 093 10.0
2015-Apr-01 23:00 125 10.6
2015-Apr-01 22:45 117 10.6
2015-Apr-01 22:30 134 0 gusting 1 10.6
2015-Apr-01 22:15 113 0 gusting 3 10.6
2015-Apr-01 22:00 063 11.1
2015-Apr-01 21:45 330 1 gusting 4 11.7
2015-Apr-01 21:30 126 0 gusting 2 12.2
2015-Apr-01 21:15 110 0 gusting 1 12.8
2015-Apr-01 21:00 118 13.3
2015-Apr-01 20:45 020 13.3
2015-Apr-01 20:30 132 14.4
2015-Apr-01 20:15 058 4 gusting 6 14.4
2015-Apr-01 20:00 039 3 gusting 10 15.0
2015-Apr-01 19:45 042 4 gusting 12 15.0
2015-Apr-01 19:30 058 4 gusting 8 15.6
2015-Apr-01 19:15 008 6 gusting 9 15.6
2015-Apr-01 19:00 054 6 gusting 12 16.1
2015-Apr-01 18:45 001 4 gusting 11 16.1
2015-Apr-01 18:30 047 3 gusting 8 16.1
2015-Apr-01 18:15 006 3 gusting 6 16.7
2015-Apr-01 18:00 333 2 gusting 6 17.8
2015-Apr-01 17:45 041 3 gusting 7 18.3
2015-Apr-01 17:30 314 1 gusting 4 19.4
2015-Apr-01 17:15 250 1 gusting 3 20.0
2015-Apr-01 17:00 225 1 gusting 4 20.0
2015-Apr-01 16:45 214 2 gusting 5 19.4
2015-Apr-01 16:30 234 0 gusting 6 19.4
2015-Apr-01 16:15 233 2 gusting 6 19.4
2015-Apr-01 16:00 231 2 gusting 7 19.4
2015-Apr-01 15:45 243 1 gusting 7 20.0
2015-Apr-01 15:30 218 2 gusting 8 19.4
2015-Apr-01 15:15 236 2 gusting 7 20.0
2015-Apr-01 15:00 214 4 gusting 10 19.4
2015-Apr-01 14:45 255 2 gusting 9 20.0
2015-Apr-01 14:30 108 4 gusting 6 20.0
2015-Apr-01 14:15 225 3 gusting 7 20.0
2015-Apr-01 14:00 217 2 gusting 9 20.0
2015-Apr-01 13:45 191 3 gusting 7 19.4
2015-Apr-01 13:30 073 3 gusting 8 19.4
2015-Apr-01 13:15 236 3 gusting 7 19.4
2015-Apr-01 13:00 143 2 gusting 8 19.4
2015-Apr-01 12:45 034 2 gusting 6 20.0
2015-Apr-01 12:29 207 3 gusting 6 20.6
2015-Apr-01 12:14 219 3 gusting 6 20.0
2015-Apr-01 11:59 240 2 gusting 6 19.4
2015-Apr-01 11:44 263 1 gusting 6 19.4
2015-Apr-01 11:29 296 1 gusting 6 18.9
2015-Apr-01 11:14 283 2 gusting 7 18.3
2015-Apr-01 10:59 248 0 gusting 6 18.3
2015-Apr-01 10:44 205 3 gusting 6 17.8
2015-Apr-01 10:29 253 1 gusting 6 17.8
2015-Apr-01 10:14 248 3 gusting 6 16.7
2015-Apr-01 09:59 218 2 gusting 4 16.7
2015-Apr-01 09:44 028 3 gusting 6 16.1
2015-Apr-01 09:29 316 1 gusting 9 16.1
2015-Apr-01 09:14 352 3 gusting 8 16.1
2015-Apr-01 08:59 019 4 gusting 6 15.6
2015-Apr-01 08:44 077 2 gusting 8 15.0
2015-Apr-01 08:29 044 4 gusting 14 14.4
2015-Apr-01 08:14 049 4 gusting 10 13.9
2015-Apr-01 07:59 328 3 gusting 10 13.9
2015-Apr-01 07:44 051 1 gusting 6 13.3
2015-Apr-01 07:29 245 2 gusting 7 12.8
2015-Apr-01 07:14 127 0 gusting 6 12.2
2015-Apr-01 06:59 136 3 gusting 9 12.2
2015-Apr-01 06:44 058 5 gusting 8 11.7
2015-Apr-01 06:29 316 0 gusting 4 11.7
2015-Apr-01 06:14 350 0 gusting 5 11.7
2015-Apr-01 05:59 072 3 gusting 9 11.1
2015-Apr-01 05:44 290 0 gusting 3 10.6
2015-Apr-01 05:29 063 0 gusting 6 10.6
2015-Apr-01 05:14 325 8.9
2015-Apr-01 04:59 341 8.9
2015-Apr-01 04:44 113 8.9
2015-Apr-01 04:29 134 1 gusting 4 8.9
2015-Apr-01 04:13 208 10.6
2015-Apr-01 03:58 044 10.0
2015-Apr-01 03:44 229 10.6
2015-Apr-01 03:28 070 11.1
2015-Apr-01 03:13 105 0 gusting 1 10.6
2015-Apr-01 02:58 126 0 gusting 1 12.2
2015-Apr-01 02:43 159 0 gusting 3 12.2
2015-Apr-01 02:28 167 0 gusting 6 13.3
2015-Apr-01 02:13 046 2 gusting 4 14.4
2015-Apr-01 01:58 070 1 gusting 6 13.9
2015-Apr-01 01:43 341 1 gusting 6 14.4
2015-Apr-01 01:28 042 3 gusting 6 14.4
2015-Apr-01 01:13 342 1 gusting 6 14.4
2015-Apr-01 00:58 030 2 gusting 8 14.4
2015-Apr-01 00:43 333 2 gusting 8 15.0
2015-Apr-01 00:28 032 1 gusting 7 15.0
2015-Apr-01 00:13 310 1 gusting 10 15.0
2015-Mar-31 23:58 028 2 gusting 11 15.0
2015-Mar-31 23:43 043 2 gusting 10 15.6
2015-Mar-31 23:28 001 6 gusting 12 15.6
2015-Mar-31 23:13 046 5 gusting 13 15.6
2015-Mar-31 22:58 005 6 gusting 13 15.6
2015-Mar-31 22:43 060 7 gusting 11 15.6
2015-Mar-31 22:28 300 3 gusting 6 15.6
2015-Mar-31 22:13 033 6 gusting 13 15.6
2015-Mar-31 21:58 360 3 gusting 12 16.1
2015-Mar-31 21:43 025 5 gusting 13 16.7
2015-Mar-31 21:28 058 6 gusting 13 16.7
2015-Mar-31 21:13 359 8 gusting 14 16.7
2015-Mar-31 20:58 336 6 gusting 14 16.7
2015-Mar-31 20:43 011 9 gusting 16 17.2
2015-Mar-31 20:28 011 6 gusting 14 17.8
2015-Mar-31 20:13 063 7 gusting 13 18.3
2015-Mar-31 19:58 026 7 gusting 13 18.3
2015-Mar-31 19:43 029 5 gusting 11 18.9
2015-Mar-31 19:28 120 3 gusting 9 18.9
2015-Mar-31 19:13 064 6 gusting 10 19.4
2015-Mar-31 18:58 047 4 gusting 12 20.6
2015-Mar-31 18:43 302 6 gusting 9 21.1
2015-Mar-31 18:28 083 4 gusting 10 21.7
2015-Mar-31 18:13 058 3 gusting 6 22.2
2015-Mar-31 17:58 073 4 gusting 7 23.3
2015-Mar-31 17:43 001 4 gusting 9 24.4
2015-Mar-31 17:28 200 1 gusting 5 25.0
2015-Mar-31 17:13 218 1 gusting 6 25.0
2015-Mar-31 16:58 233 3 gusting 6 25.0
2015-Mar-31 16:42 225 5 gusting 7 25.0
2015-Mar-31 16:27 200 4 gusting 8 25.0
2015-Mar-31 16:12 211 3 gusting 10 25.6
2015-Mar-31 15:57 221 3 gusting 9 25.0
2015-Mar-31 15:42 222 5 gusting 9 25.0
2015-Mar-31 15:27 210 6 gusting 12 25.6
2015-Mar-31 15:12 204 6 gusting 13 25.6
2015-Mar-31 14:57 221 4 gusting 10 26.1
2015-Mar-31 14:42 163 3 gusting 6 26.1
2015-Mar-31 14:27 174 3 gusting 10 26.1
2015-Mar-31 14:12 224 2 gusting 7 26.1
2015-Mar-31 13:57 287 2 gusting 6 26.1
2015-Mar-31 13:42 080 1 gusting 7 25.6
2015-Mar-31 13:27 204 1 gusting 7 25.0
2015-Mar-31 13:12 219 3 gusting 8 25.0
2015-Mar-31 12:57 204 1 gusting 5 25.0
2015-Mar-31 12:42 255 0 gusting 5 24.4
2015-Mar-31 12:27 198 2 gusting 6 23.9
2015-Mar-31 12:12 210 1 gusting 4 23.9
2015-Mar-31 11:57 134 1 gusting 7 22.8
2015-Mar-31 11:42 340 0 gusting 3 23.3
2015-Mar-31 11:27 181 1 gusting 5 22.8
2015-Mar-31 11:12 194 0 gusting 4 22.2
2015-Mar-31 10:57 233 0 gusting 4 22.2
2015-Mar-31 10:41 236 21.7
2015-Mar-31 10:26 249 0 gusting 2 20.6
2015-Mar-31 10:11 219 0 gusting 3 19.4
2015-Mar-31 09:56 316 18.9
2015-Mar-31 09:41 259 18.3
2015-Mar-31 09:26 262 18.3
2015-Mar-31 09:11 291 17.8
2015-Mar-31 08:56 229 16.1
2015-Mar-31 08:41 169 15.6
2015-Mar-31 08:26 252 14.4
2015-Mar-31 08:11 232 13.9
2015-Mar-31 07:56 181 13.9
2015-Mar-31 07:41 236 12.8
2015-Mar-31 07:26 145 11.7
2015-Mar-31 07:11 151 11.7
2015-Mar-31 06:56 103 9.4
2015-Mar-31 06:41 104 8.3
2015-Mar-31 06:26 072 8.3
2015-Mar-31 06:11 072 8.9
2015-Mar-31 05:56 360 9.4
2015-Mar-31 05:41 358 9.4
2015-Mar-31 05:26 051 9.4
2015-Mar-31 05:11 020 0 gusting 1 8.9
2015-Mar-31 04:56 100 1 gusting 2 9.4
2015-Mar-31 04:41 102 9.4
2015-Mar-31 04:26 090 11.1
2015-Mar-31 04:11 058 10.6